Location: Beccas
(43.4309°N, 0.1528°E)
Time: 23:27:37
(UTC+00:00)

Cosmos 1703 - Pass Details

Date: 22 May 2022
Orbit: 518 x 535 km, 82.5° (Epoch: 01 July)

Event Time Altitude Azimuth Distance (km) Brightness Sun altitude
Exits shadow 02:21:30 11° 147° (SSE) 1,730 5.6 -18.0°
Maximum altitude 02:24:40 27° 90° (E) 1,057 5.1 -17.7°
Drops below altitude 10° 02:28:00 10° 32° (NNE) 1,798 7.2 -17.3°
Sets 02:30:23 0° 20° (NNE) 2,693 8.3 -17.0°
